User: anonymous   Login
Location: Unspecified
(0.0000°N, 0.0000°E)
Time: 18:16:53
(UTC+00:00)
Language:

CANX 3A (UNIBRITE) - Orbit

View from above orbital plane
View from above orbital plane
View from above satellite
View from above satellite

Ground track
Ground track

The orbit data is extracted from the following two-line orbital elements,

1 39092U 13009G   15148.97594241  .00000095  00000-0  49109-4 0  9997
2 39092 098.6050 347.4303 0009585 011.5460 348.5943 14.34756622117893
Epoch (UTC): 28 May 2015 23:25:21
Eccentricity: 0.0009585
inclination: 98.6050°
perigee height: 769 km
apogee height: 783 km
right ascension of ascending node: 347.4303°
argument of perigee: 11.5460°
revolutions per day: 14.34756622
mean anomaly at epoch: 348.5943°
orbit number at epoch: 11789

The dashed part of the orbit path shows where the satellite is in the earth's shadow,  

DLR